| time (UTC) | temp F | wind direction | speed MPH | gust MPH | rain 1hr in | rain 24hr in | rain mn in | humidity % | barometer mb |
| 20260901203329 | 99 | 211 | 7.0 | 14.0 | 0.00 | 0.00 | 0.00 | 42 | 1013.7 |
| 20260901202332 | 99 | 201 | 6.0 | 15.0 | 0.00 | 0.00 | 0.00 | 42 | 1013.8 |
| 20260901201339 | 99 | 211 | 8.0 | 15.0 | 0.00 | 0.00 | 0.00 | 40 | 1013.9 |
| 20260901200337 | 99 | 195 | 5.0 | 11.0 | 0.00 | 0.00 | 0.00 | 43 | 1014.0 |
| 20260901195710 | 99 | 217 | 6.0 | 13.0 | 0.00 | 0.00 | 0.00 | 43 | 1014.1 |
| 20260901194940 | 99 | 218 | 8.0 | 14.0 | 0.00 | 0.00 | 0.00 | 42 | 1014.1 |
| 20260901193347 | 98 | 169 | 8.0 | 12.0 | 0.00 | 0.00 | 0.00 | 43 | 1014.2 |
| 20260901192344 | 99 | 126 | 7.0 | 14.0 | 0.00 | 0.00 | 0.00 | 44 | 1014.4 |
| 20260901191327 | 98 | 201 | 6.0 | 12.0 | 0.00 | 0.00 | 0.00 | 44 | 1014.5 |
| 20260901190324 | 98 | 215 | 6.0 | 11.0 | 0.00 | 0.00 | 0.00 | 43 | 1014.7 |
| 20260901185329 | 98 | 207 | 5.0 | 12.0 | 0.00 | 0.00 | 0.00 | 43 | 1014.7 |
| 20260901184324 | 98 | 235 | 7.0 | 12.0 | 0.00 | 0.00 | 0.00 | 44 | 1014.8 |
| 20260901183342 | 97 | 200 | 7.0 | 13.0 | 0.00 | 0.00 | 0.00 | 44 | 1015.0 |
| 20260901182329 | 97 | 238 | 5.0 | 11.0 | 0.00 | 0.00 | 0.00 | 46 | 1015.0 |
| 20260901181334 | 96 | 231 | 6.0 | 13.0 | 0.00 | 0.00 | 0.00 | 45 | 1015.1 |
| 20260901180332 | 96 | 250 | 6.0 | 11.0 | 0.00 | 0.00 | 0.00 | 46 | 1015.2 |
| 20260901175943 | 95 | 201 | 6.0 | 12.0 | 0.00 | 0.00 | 0.00 | 48 | 1015.3 |
| 20260901173322 | 95 | 205 | 7.0 | 11.0 | 0.00 | 0.00 | 0.00 | 48 | 1015.4 |
| 20260901172326 | 95 | 208 | 7.0 | 11.0 | 0.00 | 0.00 | 0.00 | 48 | 1015.5 |
| 20260901171333 | 94 | 200 | 6.0 | 11.0 | 0.00 | 0.00 | 0.00 | 49 | 1015.5 |
| 20260901170329 | 94 | 205 | 6.0 | 11.0 | 0.00 | 0.00 | 0.00 | 50 | 1015.3 |
| 20260901165334 | 94 | 131 | 4.0 | 11.0 | 0.00 | 0.00 | 0.00 | 51 | 1015.3 |
| 20260901164321 | 94 | 180 | 5.0 | 10.0 | 0.00 | 0.00 | 0.00 | 52 | 1015.4 |
| 20260901163340 | 93 | 212 | 5.0 | 8.0 | 0.00 | 0.00 | 0.00 | 52 | 1015.4 |
| 20260901162321 | 92 | 193 | 5.0 | 11.0 | 0.00 | 0.00 | 0.00 | 53 | 1015.5 |
| 20260901161943 | 92 | 203 | 4.0 | 11.0 | 0.00 | 0.00 | 0.00 | 54 | 1015.6 |
| 20260901160337 | 91 | 218 | 5.0 | 10.0 | 0.00 | 0.00 | 0.00 | 55 | 1015.7 |
| 20260901155325 | 90 | 240 | 6.0 | 10.0 | 0.00 | 0.00 | 0.00 | 54 | 1015.7 |
| 20260901154338 | 90 | 195 | 5.0 | 9.0 | 0.00 | 0.00 | 0.00 | 57 | 1015.7 |
| 20260901153334 | 89 | 155 | 5.0 | 7.0 | 0.00 | 0.00 | 0.00 | 57 | 1015.7 |
| 20260901152320 | 88 | 221 | 4.0 | 7.0 | 0.00 | 0.00 | 0.00 | 58 | 1015.7 |
| 20260901151325 | 87 | 204 | 4.0 | 7.0 | 0.00 | 0.00 | 0.00 | 63 | 1015.7 |
| 20260901150323 | 86 | 197 | 5.0 | 10.0 | 0.00 | 0.00 | 0.00 | 61 | 1015.7 |
| 20260901145331 | 85 | 198 | 4.0 | 6.0 | 0.00 | 0.00 | 0.00 | 63 | 1015.8 |
| 20260901144332 | 84 | 223 | 3.0 | 6.0 | 0.00 | 0.00 | 0.00 | 66 | 1015.8 |
| 20260901143328 | 83 | 211 | 4.0 | 7.0 | 0.00 | 0.00 | 0.00 | 67 | 1015.8 |
| 20260901142336 | 83 | 191 | 3.0 | 7.0 | 0.00 | 0.00 | 0.00 | 67 | 1015.9 |
| 20260901141322 | 82 | 205 | 3.0 | 6.0 | 0.00 | 0.00 | 0.00 | 68 | 1015.9 |
| 20260901140319 | 81 | 224 | 3.0 | 5.0 | 0.00 | 0.00 | 0.00 | 69 | 1015.9 |
| 20260901135322 | 80 | 222 | 1.0 | 6.0 | 0.00 | 0.00 | 0.00 | 74 | 1016.0 |
| 20260901134327 | 79 | 233 | 2.0 | 4.0 | 0.00 | 0.00 | 0.00 | 75 | 1016.1 |
| 20260901134214 | 78 | 226 | 1.0 | 4.0 | 0.00 | 0.00 | 0.00 | 75 | 1016.1 |
| 20260901132355 | 78 | 204 | 3.0 | 6.0 | 0.00 | 0.00 | 0.00 | 74 | 1016.0 |
| 20260901131321 | 77 | 228 | 0.0 | 4.0 | 0.00 | 0.00 | 0.00 | 80 | 1016.0 |
| 20260901130341 | 75 | 221 | 1.0 | 3.0 | 0.00 | 0.00 | 0.00 | 84 | 1016.0 |
| 20260901125320 | 73 | 222 | 1.0 | 3.0 | 0.00 | 0.00 | 0.00 | 88 | 1015.9 |
| 20260901124348 | 72 | 224 | 1.0 | 2.0 | 0.00 | 0.00 | 0.00 | 91 | 1015.9 |
| 20260901123346 | 70 | 300 | 0.0 | 0.0 | 0.00 | 0.00 | 0.00 | 92 | 1015.7 |
| 20260901122326 | 69 | 300 | 0.0 | 1.0 | 0.00 | 0.00 | 0.00 | 93 | 1015.7 |
| 20260901121443 | 68 | 300 | 0.0 | 0.0 | 0.00 | 0.00 | 0.00 | 94 | 1015.7 |
| 20260901115326 | 69 | 300 | 0.0 | 0.0 | 0.00 | 0.00 | 0.00 | 94 | 1015.6 |
| 20260901114334 | 69 | 300 | 0.0 | 0.0 | 0.00 | 0.00 | 0.00 | 95 | 1015.4 |
| 20260901113331 | 68 | 300 | 0.0 | 0.0 | 0.00 | 0.00 | 0.00 | 97 | 1015.4 |
| 20260901112339 | 68 | 300 | 0.0 | 0.0 | 0.00 | 0.00 | 0.00 | 97 | 1015.3 |
| 20260901112213 | 68 | 300 | 0.0 | 1.0 | 0.00 | 0.00 | 0.00 | 97 | 1015.3 |
| 20260901110329 | 68 | 300 | 1.0 | 1.0 | 0.00 | 0.00 | 0.00 | 97 | 1015.4 |
| 20260901105355 | 68 | 300 | 1.0 | 2.0 | 0.00 | 0.00 | 0.00 | 98 | 1015.3 |
| 20260901104320 | 68 | 300 | 1.0 | 1.0 | 0.00 | 0.00 | 0.00 | 97 | 1015.3 |
| 20260901103319 | 68 | 300 | 0.0 | 0.0 | 0.00 | 0.00 | 0.00 | 97 | 1015.4 |
| 20260901102326 | 68 | 300 | 0.0 | 0.0 | 0.00 | 0.00 | 0.00 | 97 | 1015.4 |
| 20260901101329 | 68 | 300 | 0.0 | 0.0 | 0.00 | 0.00 | 0.00 | 97 | 1015.2 |
| 20260901100328 | 69 | 300 | 0.0 | 1.0 | 0.00 | 0.00 | 0.00 | 97 | 1015.1 |
| 20260901095334 | 69 | 300 | 0.0 | 0.0 | 0.00 | 0.00 | 0.00 | 96 | 1015.1 |
| 20260901094320 | 69 | 300 | 1.0 | 1.0 | 0.00 | 0.00 | 0.00 | 96 | 1015.0 |
| 20260901092322 | 69 | 300 | 0.0 | 1.0 | 0.00 | 0.00 | 0.00 | 96 | 1014.9 |
| 20260901091348 | 70 | 300 | 1.0 | 1.0 | 0.00 | 0.00 | 0.00 | 96 | 1014.9 |
| 20260901090326 | 70 | 300 | 0.0 | 1.0 | 0.00 | 0.00 | 0.00 | 96 | 1015.0 |
| 20260901085330 | 70 | 300 | 1.0 | 2.0 | 0.00 | 0.00 | 0.00 | 96 | 1014.9 |
| 20260901084339 | 70 | 300 | 2.0 | 2.0 | 0.00 | 0.00 | 0.00 | 96 | 1014.8 |
| 20260901083338 | 71 | 300 | 1.0 | 2.0 | 0.00 | 0.00 | 0.00 | 96 | 1014.8 |
| 20260901082320 | 71 | 300 | 1.0 | 1.0 | 0.00 | 0.00 | 0.00 | 95 | 1014.8 |
| 20260901081324 | 71 | 300 | 0.0 | 1.0 | 0.00 | 0.00 | 0.00 | 95 | 1014.8 |
| 20260901080340 | 71 | 300 | 0.0 | 1.0 | 0.00 | 0.00 | 0.00 | 94 | 1014.9 |
| 20260901075326 | 71 | 300 | 1.0 | 2.0 | 0.00 | 0.00 | 0.00 | 94 | 1014.9 |
| 20260901074334 | 72 | 300 | 1.0 | 2.0 | 0.00 | 0.00 | 0.00 | 94 | 1014.8 |
| 20260901073332 | 72 | 300 | 1.0 | 1.0 | 0.00 | 0.00 | 0.00 | 93 | 1014.8 |
| 20260901072337 | 72 | 299 | 1.0 | 2.0 | 0.00 | 0.00 | 0.00 | 94 | 1014.7 |
| 20260901071324 | 72 | 252 | 0.0 | 0.0 | 0.00 | 0.00 | 0.00 | 92 | 1014.8 |
| 20260901070343 | 72 | 229 | 0.0 | 0.0 | 0.00 | 0.00 | 0.00 | 91 | 1014.9 |
| 20260901065323 | 73 | 229 | 0.0 | 0.0 | 0.00 | 0.00 | 0.00 | 88 | 1015.0 |
| 20260901064331 | 74 | 229 | 0.0 | 0.0 | 0.00 | 0.00 | 0.00 | 87 | 1015.1 |
| 20260901064214 | 75 | 229 | 0.0 | 0.0 | 0.00 | 0.00 | 0.00 | 86 | 1015.0 |
| 20260901062320 | 76 | 229 | 0.0 | 0.0 | 0.00 | 0.00 | 0.00 | 82 | 1015.0 |
| 20260901061326 | 77 | 229 | 0.0 | 0.0 | 0.00 | 0.00 | 0.00 | 82 | 1015.1 |
| 20260901060324 | 78 | 229 | 0.0 | 0.0 | 0.00 | 0.00 | 0.00 | 82 | 1015.1 |
| 20260901055330 | 78 | 229 | 0.0 | 0.0 | 0.00 | 0.00 | 0.00 | 82 | 1015.1 |
| 20260901054716 | 78 | 229 | 0.0 | 0.0 | 0.00 | 0.00 | 0.00 | 81 | 1015.1 |
| 20260901053401 | 79 | 229 | 0.0 | 0.0 | 0.00 | 0.00 | 0.00 | 81 | 1015.1 |
| 20260901052321 | 79 | 217 | 0.0 | 0.0 | 0.00 | 0.00 | 0.00 | 81 | 1015.0 |
| 20260901051329 | 79 | 217 | 0.0 | 0.0 | 0.00 | 0.00 | 0.00 | 80 | 1014.9 |
| 20260901050328 | 79 | 151 | 0.0 | 0.0 | 0.00 | 0.00 | 0.00 | 80 | 1014.9 |
| 20260901045326 | 79 | 152 | 1.0 | 2.0 | 0.00 | 0.00 | 0.00 | 80 | 1014.8 |
| 20260901044331 | 79 | 121 | 1.0 | 4.0 | 0.00 | 0.00 | 0.00 | 81 | 1014.8 |
| 20260901043351 | 79 | 109 | 1.0 | 4.0 | 0.00 | 0.00 | 0.00 | 81 | 1014.7 |
| 20260901042334 | 79 | 94 | 2.0 | 5.0 | 0.00 | 0.00 | 0.00 | 82 | 1014.7 |
| 20260901041321 | 78 | 129 | 1.0 | 2.0 | 0.00 | 0.00 | 0.00 | 83 | 1014.7 |
| 20260901040338 | 78 | 25 | 1.0 | 1.0 | 0.00 | 0.00 | 0.00 | 84 | 1014.7 |
| 20260901035342 | 78 | 23 | 2.0 | 3.0 | 0.00 | 0.00 | 0.00 | 84 | 1014.6 |
| 20260901034327 | 79 | 15 | 2.0 | 2.0 | 0.00 | 0.00 | 0.00 | 84 | 1014.5 |
| 20260901033325 | 79 | 15 | 1.0 | 3.0 | 0.00 | 0.00 | 0.00 | 83 | 1014.5 |
| 20260901032333 | 79 | 15 | 2.0 | 3.0 | 0.00 | 0.00 | 0.00 | 83 | 1014.4 |
| 20260901031319 | 79 | 13 | 2.0 | 3.0 | 0.00 | 0.00 | 0.00 | 84 | 1014.4 |
| 20260901030339 | 78 | 11 | 3.0 | 4.0 | 0.00 | 0.00 | 0.00 | 86 | 1014.4 |
| 20260901025326 | 78 | 6 | 3.0 | 3.0 | 0.00 | 0.00 | 0.00 | 90 | 1014.3 |
| 20260901024334 | 78 | 6 | 2.0 | 2.0 | 0.00 | 0.00 | 0.00 | 91 | 1014.3 |
| 20260901023334 | 78 | 6 | 3.0 | 3.0 | 0.00 | 0.00 | 0.00 | 90 | 1014.2 |
| 20260901023216 | 79 | 6 | 2.0 | 2.0 | 0.00 | 0.00 | 0.00 | 89 | 1014.2 |
| 20260901021326 | 79 | 6 | 2.0 | 2.0 | 0.00 | 0.00 | 0.00 | 89 | 1014.0 |
| 20260901020325 | 79 | 6 | 2.0 | 3.0 | 0.00 | 0.00 | 0.00 | 87 | 1014.0 |
| 20260901015334 | 79 | 320 | 2.0 | 2.0 | 0.00 | 0.00 | 0.00 | 87 | 1014.0 |
| 20260901014320 | 80 | 311 | 0.0 | 1.0 | 0.00 | 0.00 | 0.00 | 85 | 1014.0 |
| 20260901013338 | 81 | 311 | 1.0 | 1.0 | 0.00 | 0.00 | 0.00 | 84 | 1014.0 |
| 20260901012338 | 82 | 311 | 0.0 | 2.0 | 0.00 | 0.00 | 0.00 | 81 | 1013.9 |
| 20260901011323 | 83 | 306 | 1.0 | 2.0 | 0.00 | 0.00 | 0.00 | 79 | 1013.9 |
| 20260901010320 | 84 | 256 | 0.0 | 1.0 | 0.00 | 0.00 | 0.00 | 75 | 1013.8 |
| 20260901005329 | 86 | 256 | 0.0 | 1.0 | 0.00 | 0.00 | 0.00 | 72 | 1013.9 |
| 20260901004334 | 89 | 255 | 0.0 | 0.0 | 0.00 | 0.00 | 0.00 | 67 | 1013.8 |
| 20260901004217 | 92 | 256 | 0.0 | 0.0 | 0.00 | 0.00 | 0.00 | 63 | 1013.8 |
| 20260901002329 | 95 | 255 | 0.0 | 0.0 | 0.00 | 0.00 | 0.00 | 59 | 1013.9 |
| 20260901001322 | 96 | 255 | 0.0 | 0.0 | 0.00 | 0.00 | 0.00 | 55 | 1013.9 |
| 20260901000447 | 97 | 256 | 0.0 | 0.0 | 0.00 | 0.00 | 0.00 | 50 | 1013.9 |
| 20260831235338 | 98 | 256 | 0.0 | 0.0 | 0.00 | 0.00 | 0.00 | 55 | 1013.8 |
| 20260831234447 | 97 | 256 | 0.0 | 1.0 | 0.00 | 0.00 | 0.00 | 51 | 1013.9 |
| 20260831233336 | 97 | 255 | 0.0 | 2.0 | 0.00 | 0.00 | 0.00 | 51 | 1013.9 |
| 20260831232337 | 96 | 255 | 1.0 | 3.0 | 0.00 | 0.00 | 0.00 | 49 | 1013.9 |
| 20260831231323 | 96 | 246 | 1.0 | 5.0 | 0.00 | 0.00 | 0.00 | 48 | 1013.9 |
| 20260831230340 | 96 | 249 | 2.0 | 4.0 | 0.00 | 0.00 | 0.00 | 48 | 1014.0 |
| 20260831225320 | 97 | 250 | 3.0 | 5.0 | 0.00 | 0.00 | 0.00 | 48 | 1014.0 |
| 20260831224320 | 96 | 256 | 4.0 | 6.0 | 0.00 | 0.00 | 0.00 | 48 | 1013.9 |
| 20260831223317 | 97 | 228 | 5.0 | 7.0 | 0.00 | 0.00 | 0.00 | 48 | 1013.9 |
| 20260831222322 | 97 | 255 | 4.0 | 6.0 | 0.00 | 0.00 | 0.00 | 48 | 1013.9 |
| 20260831221318 | 97 | 241 | 3.0 | 7.0 | 0.00 | 0.00 | 0.00 | 48 | 1013.9 |
| 20260831220336 | 97 | 200 | 4.0 | 7.0 | 0.00 | 0.00 | 0.00 | 48 | 1013.9 |
| 20260831215322 | 98 | 257 | 3.0 | 6.0 | 0.00 | 0.00 | 0.00 | 47 | 1013.9 |
| 20260831214327 | 98 | 247 | 4.0 | 6.0 | 0.00 | 0.00 | 0.00 | 45 | 1013.9 |
| 20260831213326 | 99 | 232 | 4.0 | 6.0 | 0.00 | 0.00 | 0.00 | 46 | 1013.8 |
| 20260831212333 | 99 | 248 | 3.0 | 6.0 | 0.00 | 0.00 | 0.00 | 46 | 1013.8 |
| 20260831211319 | 99 | 256 | 4.0 | 8.0 | 0.00 | 0.00 | 0.00 | 47 | 1013.9 |
| 20260831210339 | 98 | 181 | 3.0 | 7.0 | 0.00 | 0.00 | 0.00 | 47 | 1013.9 |
| 20260831205321 | 98 | 200 | 3.0 | 7.0 | 0.00 | 0.00 | 0.00 | 48 | 1014.1 |
| 20260831204326 | 98 | 226 | 5.0 | 8.0 | 0.00 | 0.00 | 0.00 | 48 | 1014.1 |